DW0156 Weather Reports


time (UTC)temp
C
wind
direction
speed
KPH
gust
KPH
rain 1hr
cm
rain 24hr
cm
rain mn
cm
humidity
%
barometer
mb
20260905024333 16 263 14.5 30.6 0.00 0.41 0.36 63 1013.9
20260905023818 16 263 12.9 30.6 0.00 0.41 0.36 63 1013.9
20260905022654 15 263 16.1 40.2 0.00 0.41 0.36 65 1013.9
20260905021558 15 263 16.1 40.2 0.00 0.41 0.36 66 1013.9
20260905021049 15 263 16.1 32.2 0.00 0.41 0.36 65 1013.7
20260905020600 15 263 12.9 32.2 0.00 0.46 0.36 66 1013.7
20260905020044 15 263 11.3 29.0 0.00 0.46 0.36 66 1013.7
20260905015526 15 263 9.7 29.0 0.00 0.46 0.36 66 1013.5
20260905015031 15 263 9.7 29.0 0.00 0.46 0.36 66 1013.5
20260905014535 15 263 11.3 29.0 0.00 0.46 0.36 66 1013.5
20260905014017 15 263 9.7 27.4 0.00 0.46 0.36 66 1013.6
20260905013457 15 263 11.3 30.6 0.00 0.48 0.36 67 1013.6
20260905012954 15 263 14.5 30.6 0.00 0.51 0.36 67 1013.6
20260905011818 15 263 17.7 32.2 0.00 0.51 0.36 66 1013.3
20260905011304 14 263 19.3 40.2 0.00 0.51 0.36 68 1013.1
20260905010749 14 263 17.7 40.2 0.00 0.51 0.36 70 1013.1
20260905005624 13 263 12.9 40.2 0.00 0.51 0.36 79 1012.7
20260905005125 13 288 9.7 29.0 0.00 0.51 0.36 85 1012.7
20260905004606 13 263 9.7 29.0 0.00 0.51 0.36 86 1012.7
20260905004102 13 263 9.7 29.0 0.00 0.51 0.36 86 1012.7
20260905003543 13 263 9.7 29.0 0.00 0.51 0.36 86 1012.7
20260905003039 13 263 8.0 19.3 0.00 0.51 0.36 86 1012.7
20260905002520 12 263 9.7 29.0 0.08 0.51 0.36 86 1012.6
20260905002021 13 263 11.3 29.0 0.13 0.51 0.36 85 1012.6
20260905001517 13 263 9.7 30.6 0.28 0.51 0.36 85 1012.6
20260905001007 13 263 9.7 30.6 1.91 0.38 0.28 85 1012.4
20260905000505 13 263 11.3 30.6 0.00 0.36 0.20 85 1012.4
20260905000011 13 263 11.3 30.6 0.00 0.36 0.20 85 1012.4
20260904235508 13 263 11.3 25.7 0.00 0.36 0.20 85 1012.2
20260904234955 13 263 9.7 25.7 0.00 0.36 0.20 86 1012.2
20260904234442 13 263 9.7 22.5 0.00 0.36 0.20 86 1012.2
20260904233934 13 263 9.7 25.7 0.00 0.36 0.20 86 1012.1
20260904232802 12 263 8.0 25.7 0.08 0.36 0.20 85 1011.9
20260904232253 12 263 9.7 24.1 0.08 0.36 0.20 84 1011.9
20260904231755 13 263 9.7 27.4 0.18 0.36 0.20 82 1011.9
20260904231301 13 263 11.3 27.4 0.28 0.36 0.20 81 1011.5
20260904230802 14 263 9.7 27.4 0.69 0.33 0.18 80 1011.5
20260904230245 14 263 8.0 27.4 2.21 0.18 0.05 77 1011.5
20260904225735 14 263 4.8 24.1 0.00 0.18 0.00 76 1011.2
20260904225222 14 263 4.8 20.9 0.00 0.18 0.00 76 1011.2
20260904224111 14 263 4.8 24.1 0.00 0.18 0.00 76 1011.2
20260904223558 14 263 6.4 24.1 0.00 0.18 0.00 76 1011.2
20260904223052 14 263 6.4 24.1 0.00 0.18 0.00 77 1011.2
20260904222533 14 263 6.4 24.1 0.00 0.18 0.00 77 1011.1
20260904222030 13 263 6.4 22.5 0.00 0.18 0.00 78 1011.1
20260904221517 13 263 6.4 22.5 0.00 0.18 0.00 78 1011.1
20260904221007 13 263 6.4 17.7 0.00 0.18 0.00 78 1010.9
20260904220449 13 263 6.4 17.7 0.00 0.18 0.00 79 1010.9
20260904215937 13 263 4.8 16.1 0.00 0.18 0.00 79 1010.9
20260904215439 13 263 6.4 17.7 0.00 0.18 0.00 79 1010.6
20260904214942 13 263 6.4 17.7 0.00 0.18 0.00 79 1010.6
20260904213216 13 263 4.8 20.9 0.00 0.18 0.00 78 1010.6
20260904212038 14 263 4.8 22.5 0.00 0.18 0.00 78 1010.6
20260904211527 14 263 6.4 22.5 0.00 0.18 0.00 77 1010.6
20260904210402 14 263 6.4 19.3 0.00 0.18 0.00 77 1010.4
20260904205208 14 263 4.8 16.1 0.00 0.18 0.00 76 1010.4
20260904204108 14 263 4.8 24.1 0.00 0.18 0.00 75 1010.2
20260904202932 14 263 9.7 22.5 0.00 0.18 0.00 73 1010.2
20260904202432 14 263 8.0 24.1 0.00 0.18 0.00 73 1010.1
20260904201923 14 263 11.3 24.1 0.00 0.18 0.00 73 1010.1
20260904201429 14 263 12.9 30.6 0.00 0.18 0.00 73 1010.1
20260904200929 15 263 12.9 30.6 0.00 0.18 0.00 74 1010.0
20260904200431 15 263 14.5 32.2 0.00 0.18 0.00 75 1010.0
20260904195921 15 263 12.9 32.2 0.00 0.18 0.00 76 1010.0
20260904195418 15 263 11.3 32.2 0.00 0.18 0.00 77 1009.7
20260904194912 15 263 9.7 32.2 0.00 0.18 0.00 78 1009.7
20260904194408 15 263 9.7 24.1 0.00 0.15 0.00 79 1009.7
20260904193917 15 263 8.0 22.5 0.00 0.15 0.00 79 1009.5
20260904193402 15 263 6.4 22.5 0.00 0.15 0.00 80 1009.5
20260904192853 15 263 6.4 25.7 0.00 0.15 0.00 80 1009.2
20260904192345 15 263 6.4 25.7 0.00 0.15 0.00 80 1009.2
20260904191845 15 263 6.4 25.7 0.00 0.15 0.00 80 1009.2
20260904191330 15 263 4.8 25.7 0.00 0.15 0.00 80 1009.1
20260904190820 15 263 4.8 20.9 0.00 0.15 0.00 80 1009.1
20260904190307 15 263 4.8 17.7 0.00 0.15 0.00 79 1009.1
20260904185812 15 263 4.8 16.1 0.00 0.15 0.00 79 1008.9
20260904185256 15 263 3.2 20.9 0.00 0.15 0.00 79 1008.9
20260904184739 15 263 3.2 20.9 0.00 0.15 0.00 78 1008.9
20260904184235 15 263 4.8 20.9 0.00 0.15 0.00 78 1008.6
20260904183738 15 263 4.8 20.9 0.00 0.15 0.00 79 1008.6
20260904183222 15 263 3.2 12.9 0.00 0.15 0.00 80 1008.6
20260904182732 15 263 1.6 12.9 0.00 0.15 0.00 81 1008.8
20260904182221 15 263 1.6 12.9 0.00 0.15 0.00 81 1008.8
20260904181713 15 263 1.6 11.3 0.00 0.15 0.00 81 1008.8
20260904181214 15 263 1.6 11.3 0.00 0.15 0.00 81 1008.5
20260904180714 15 263 1.6 14.5 0.00 0.15 0.00 81 1008.5
20260904180216 15 263 3.2 14.5 0.00 0.15 0.00 81 1008.5
20260904175724 15 263 3.2 17.7 0.00 0.15 0.00 81 1008.4
20260904175211 15 263 1.6 17.7 0.00 0.15 0.00 81 1008.4
20260904174710 15 263 1.6 17.7 0.00 0.15 0.00 81 1008.4
20260904174207 16 263 3.2 17.7 0.00 0.15 0.00 81 1008.4
20260904173042 16 263 3.2 12.9 0.00 0.15 0.00 81 1008.4
20260904171932 16 263 3.2 8.0 0.00 0.15 0.00 81 1008.5
20260904171424 16 263 1.6 8.0 0.00 0.15 0.00 81 1008.5
20260904170932 16 263 1.6 9.7 0.00 0.15 0.00 80 1008.5
20260904170427 16 263 1.6 9.7 0.00 0.15 0.00 80 1008.5
20260904165916 16 263 1.6 9.7 0.00 0.15 0.00 80 1008.5
20260904165359 16 263 1.6 9.7 0.00 0.15 0.00 80 1008.6
20260904164248 16 263 3.2 8.0 0.00 0.15 0.00 80 1008.8
20260904163752 16 263 3.2 8.0 0.00 0.15 0.00 80 1008.8
20260904163239 16 263 3.2 8.0 0.00 0.15 0.00 80 1008.8
20260904162724 16 263 1.6 8.0 0.00 0.15 0.00 80 1008.8
20260904162232 16 263 1.6 6.4 0.00 0.15 0.00 80 1008.8
20260904161137 16 263 1.6 6.4 0.00 0.15 0.00 80 1008.5
20260904160020 16 263 0.0 0.0 0.00 0.15 0.00 80 1008.5
20260904155502 16 263 0.0 0.0 0.00 0.15 0.00 80 1008.4
20260904154953 16 263 0.0 4.8 0.00 0.15 0.00 80 1008.4
20260904154448 16 263 0.0 3.2 0.00 0.15 0.00 80 1008.4
20260904153947 16 263 0.0 0.0 0.00 0.15 0.00 80 1008.5
20260904153456 16 263 0.0 6.4 0.00 0.15 0.00 80 1008.5
20260904152949 16 263 1.6 6.4 0.00 0.15 0.00 80 1008.5
20260904152437 16 263 1.6 6.4 0.00 0.15 0.00 80 1008.6
20260904151937 16 263 1.6 6.4 0.00 0.15 0.00 80 1008.6
20260904151431 16 263 0.0 6.4 0.00 0.15 0.00 79 1008.6
20260904150928 16 263 0.0 1.6 0.00 0.15 0.00 79 1009.0
20260904150434 16 263 0.0 0.0 0.00 0.15 0.00 79 1009.0
20260904145918 16 263 0.0 1.6 0.00 0.15 0.00 78 1009.0
20260904145423 16 263 0.0 0.0 0.00 0.15 0.00 78 1008.6
20260904144257 16 263 0.0 0.0 0.00 0.15 0.00 78 1008.5
20260904143755 16 263 0.0 0.0 0.00 0.15 0.00 77 1008.5
20260904143241 16 263 0.0 0.0 0.00 0.15 0.00 77 1008.5
20260904142741 16 263 1.6 4.8 0.00 0.15 0.15 77 1009.0
20260904141640 16 263 1.6 9.7 0.00 0.15 0.15 76 1009.0
20260904141128 17 263 3.2 9.7 0.00 0.15 0.15 76 1008.5
20260904140001 17 263 3.2 9.7 0.00 0.13 0.13 74 1008.5
20260904135448 17 263 3.2 12.9 0.00 0.13 0.13 74 1008.6
20260904134932 17 263 1.6 12.9 0.00 0.13 0.13 74 1008.6
20260904134426 17 263 3.2 16.1 0.00 0.13 0.13 73 1008.6
20260904133915 17 263 3.2 16.1 0.00 0.13 0.13 73 1009.0
20260904133417 17 263 4.8 16.1 0.00 0.13 0.13 72 1009.0
20260904132923 17 263 4.8 16.1 0.00 0.13 0.13 72 1009.0
20260904132404 17 263 4.8 14.5 0.00 0.13 0.13 71 1008.5
20260904131905 17 263 4.8 16.1 0.00 0.13 0.13 71 1008.5
20260904130753 17 263 4.8 16.1 0.00 0.13 0.13 72 1008.3
20260904130238 17 263 4.8 16.1 0.00 0.13 0.13 72 1008.3
20260904125729 17 263 4.8 16.1 0.00 0.13 0.13 72 1008.2
20260904125227 17 263 4.8 17.7 0.00 0.13 0.13 71 1008.2
20260904124709 17 263 6.4 17.7 0.00 0.13 0.13 71 1008.2
20260904123546 17 263 4.8 19.3 0.00 0.13 0.13 70 1008.5
20260904123055 18 263 6.4 19.3 0.00 0.13 0.13 71 1008.5
20260904122540 17 263 6.4 19.3 0.00 0.13 0.13 71 1008.8
20260904122038 17 263 4.8 17.7 0.00 0.13 0.13 71 1008.8
20260904120936 17 263 4.8 16.1 0.00 0.13 0.13 71 1008.6
20260904115810 18 263 6.4 19.3 0.00 0.13 0.13 71 1009.0
20260904115251 18 263 6.4 19.3 0.00 0.13 0.13 71 1009.0
20260904114734 18 263 6.4 19.3 0.00 0.13 0.13 71 1009.0
20260904114230 18 263 6.4 17.7 0.00 0.13 0.13 71 1009.1
20260904113732 18 263 6.4 17.7 0.00 0.13 0.13 70 1009.1
20260904113217 18 263 6.4 19.3 0.00 0.13 0.13 70 1009.1
20260904112050 18 263 4.8 19.3 0.00 0.13 0.13 70 1009.0
20260904110906 18 263 6.4 20.9 0.00 0.13 0.13 69 1009.0
20260904110358 18 263 6.4 20.9 0.00 0.13 0.13 69 1009.0
20260904105843 18 263 6.4 24.1 0.00 0.13 0.13 69 1009.1
20260904105344 18 263 4.8 24.1 0.00 0.13 0.13 69 1009.1
20260904104832 18 263 6.4 24.1 0.00 0.13 0.13 70 1009.1
20260904104323 18 263 6.4 24.1 0.00 0.13 0.13 70 1009.1
20260904103152 18 263 4.8 16.1 0.00 0.13 0.13 71 1009.1
20260904102638 18 263 4.8 16.1 0.00 0.13 0.13 72 1009.1
20260904102121 18 263 6.4 22.5 0.00 0.13 0.13 72 1009.1
20260904101626 18 263 4.8 22.5 0.00 0.13 0.13 73 1009.1
20260904100442 18 263 4.8 22.5 0.00 0.13 0.13 75 1009.2
20260904095947 18 263 4.8 17.7 0.00 0.13 0.13 75 1009.2
20260904095433 18 263 4.8 17.7 0.00 0.13 0.13 75 1009.0
20260904094928 18 263 4.8 17.7 0.00 0.13 0.13 75 1009.0
20260904094419 18 263 4.8 17.7 0.00 0.13 0.13 75 1009.0
20260904093858 18 263 3.2 14.5 0.00 0.13 0.13 75 1008.6
20260904093338 18 263 3.2 16.1 0.00 0.13 0.13 75 1008.6
20260904092830 18 263 3.2 16.1 0.00 0.13 0.13 75 1008.5
20260904092321 18 263 4.8 16.1 0.00 0.13 0.13 75 1008.5
20260904091816 18 263 6.4 16.1 0.00 0.13 0.13 75 1008.5
20260904091321 18 263 6.4 16.1 0.00 0.13 0.13 75 1008.6
20260904090822 18 263 4.8 16.1 0.00 0.13 0.13 76 1008.6
20260904090306 18 263 3.2 16.1 0.00 0.13 0.13 75 1008.6
20260904085811 18 263 3.2 16.1 0.00 0.13 0.13 76 1008.6
20260904084656 18 263 4.8 16.1 0.00 0.13 0.13 76 1008.6
20260904084159 18 263 4.8 9.7 0.00 0.13 0.13 76 1008.5
20260904083646 19 263 4.8 12.9 0.00 0.13 0.13 75 1008.5
20260904083131 19 263 4.8 12.9 0.00 0.13 0.13 75 1008.5
20260904082618 19 263 4.8 12.9 0.00 0.13 0.13 75 1008.6
20260904082120 19 263 4.8 12.9 0.00 0.13 0.13 75 1008.6
20260904081608 19 263 4.8 9.7 0.00 0.13 0.13 75 1008.6
20260904081112 19 263 3.2 16.1 0.00 0.13 0.13 74 1008.7
20260904080557 19 263 3.2 16.1 0.00 0.13 0.13 74 1008.7
20260904080045 19 263 3.2 16.1 0.00 0.13 0.13 74 1008.7
20260904074920 19 263 4.8 14.5 0.00 0.13 0.13 73 1008.8
20260904074423 19 263 4.8 16.1 0.00 0.13 0.13 73 1008.8
20260904073924 19 263 4.8 16.1 0.00 0.13 0.13 73 1009.0
20260904073419 20 263 4.8 16.1 0.00 0.13 0.13 73 1009.0
20260904072908 20 263 3.2 16.1 0.00 0.13 0.13 73 1009.1
20260904072400 20 263 3.2 12.9 0.00 0.13 0.13 73 1009.1
20260904071905 20 263 1.6 12.9 0.00 0.13 0.13 73 1009.1
20260904071346 20 263 3.2 12.9 0.00 0.13 0.13 73 1009.1
20260904070827 20 263 4.8 12.9 0.00 0.13 0.13 73 1009.1
20260904070315 20 263 4.8 12.9 0.00 0.13 0.13 73 1009.1
20260904065757 19 263 3.2 12.9 0.00 0.13 0.13 72 1009.1
20260904064619 20 263 3.2 9.7 0.00 0.13 0.13 71 1009.1
20260904064119 20 263 3.2 17.7 0.00 0.13 0.13 70 1009.2
20260904063617 20 263 4.8 17.7 0.00 0.13 0.13 69 1009.2
20260904063100 20 263 6.4 17.7 0.00 0.13 0.13 68 1009.2
20260904061933 20 263 6.4 22.5 0.00 0.13 0.13 68 1009.3
20260904061423 20 263 6.4 22.5 0.00 0.13 0.13 68 1009.3
20260904060914 20 263 6.4 22.5 0.00 0.13 0.13 68 1009.4
20260904060417 20 263 6.4 22.5 0.00 0.13 0.13 68 1009.4
20260904055913 20 263 4.8 16.1 0.00 0.13 0.13 69 1009.4
20260904055408 20 263 4.8 16.1 0.00 0.13 0.13 69 1009.6
20260904054855 20 263 3.2 16.1 0.00 0.13 0.13 69 1009.6
20260904054357 20 263 3.2 16.1 0.00 0.13 0.13 70 1009.9
20260904053840 19 263 4.8 16.1 0.00 0.13 0.13 69 1009.9
20260904053323 19 263 4.8 16.1 0.00 0.13 0.13 70 1009.9
20260904052145 19 263 4.8 19.3 0.00 0.13 0.13 72 1010.0
20260904051649 18 263 8.0 19.3 0.00 0.13 0.13 72 1010.0
20260904050520 18 263 4.8 17.7 0.00 0.13 0.13 73 1010.6
20260904050018 18 263 1.6 14.5 0.00 0.13 0.13 74 1010.6
20260904045502 18 263 1.6 14.5 0.00 0.13 0.13 74 1010.5
20260904044952 18 263 3.2 17.7 0.00 0.13 0.13 73 1010.5
20260904044455 18 263 4.8 17.7 0.00 0.13 0.13 71 1010.5
20260904043952 18 263 4.8 17.7 0.00 0.10 0.10 68 1010.7
20260904042825 18 263 6.4 17.7 0.00 0.10 0.10 69 1010.7
20260904042329 18 263 6.4 17.7 0.00 0.10 0.10 69 1010.7
20260904041817 18 263 6.4 16.1 0.00 0.10 0.10 69 1010.7
20260904041304 18 263 6.4 17.7 0.00 0.10 0.10 69 1011.6
20260904040802 18 263 6.4 17.7 0.00 0.10 0.10 70 1011.6
20260904040258 18 263 6.4 17.7 0.00 0.10 0.10 70 1011.6
20260904035752 18 263 6.4 17.7 0.00 0.10 0.10 71 1011.5
20260904035253 18 263 8.0 20.9 0.00 0.10 0.10 71 1011.5
20260904034739 18 263 8.0 20.9 0.00 0.10 0.10 72 1011.5
20260904034229 18 263 8.0 20.9 0.00 0.10 0.10 75 1011.7
20260904033738 17 263 6.4 20.9 0.00 0.10 0.10 75 1011.7
20260904033231 17 263 4.8 19.3 0.00 0.10 0.10 78 1011.7
20260904032113 16 263 4.8 9.7 0.00 0.10 0.10 81 1012.3
20260904031617 16 263 3.2 11.3 0.00 0.10 0.10 83 1012.3
20260904031058 16 263 3.2 11.3 0.00 0.10 0.10 84 1012.9
20260904030550 15 263 3.2 14.5 0.00 0.08 0.08 84 1012.9
20260904030051 15 263 4.8 14.5 0.00 0.08 0.08 83 1012.9
20260904025543 15 263 4.8 20.9 0.00 0.08 0.08 82 1012.9
20260904025033 15 263 4.8 20.9 0.00 0.08 0.08 83 1012.9